sat.trackr.live / text

‹ back to catalog

CENTISPACE-1 S10

NORAD 62579 · 2025-007E

PAYLOAD ACTIVE UNKNOWN

§ Identity

Operator
Country
PRC
Launch date
2025-01-13
Launch site
YSLA
Launch vehicle
Mass (kg)
RCS (m²)

External: N2YO · Heavens-Above · Gunter

§ Orbital elements

Epoch: 2026-09-22T19:09:54.621504Z

Period
104.30 min
Inclination
54.9896°
Eccentricity
0.0009354
Mean motion
13.80624847 rev/d
Perigee alt
954.8 km
Apogee alt
968.5 km
Semi-major
7,339.8 km
B*
7.4286e-5
RAAN
310.1835°
Arg perigee
289.1832°
Mean anomaly
70.8112°
Rev number
8,821

§ Raw data

CENTISPACE-1 S101 62579U 25007E   26265.79854886 -.00000062  00000+0  74286-4 0  99982 62579  54.9896 310.1835 0009354 289.1832  70.8112 13.80624847 88218

JSON: /api/v1/satellites/62579 · /tle

For live sub-satellite position, see the globe view (requires WebGL).

§ Visibility from observer

Set your observer location to see the next 7 days of passes ≥ 10°. The values pass through the URL so the page stays shareable.

No JS? Fill the form by hand. The geolocation button needs JavaScript.

§ Radio — SatNOGS DB

ModeDescriptionDownlinkUplink
BPSK S-band telemetry 2.227 GHz
BPSK S-band telemetry 2.247 GHz

2 transmitters · refreshed weekly from db.satnogs.org